Weather History for Beaufort, SC

Change the Weather History Date:

Saturday, November 10, 2012

  Actual Average (KNBC) Record (KNBC)
Temperature  
Mean Temperature 58 °F -  
Max Temperature 71 °F 70 °F 86 °F (1948)
Min Temperature 44 °F 52 °F 32 °F (1941)
Degree Days  
Heating Degree Days 8    
Growing Degree Days 8 (Base 50)    
Moisture  
Dew Point 42 °F    
Average Humidity 69    
Maximum Humidity 100    
Minimum Humidity 25    
Precipitation  
Precipitation 0.00 in - - ()
Sea Level Pressure  
Sea Level Pressure 30.34 in    
Wind  
Wind Speed 1 mph (SE)    
Max Wind Speed 7 mph    
Max Gust Speed -    
Visibility 6 miles    
Events      
Averages and records for this station are not official NWS values.
T = Trace of Precipitation, MM = Missing Value Source: NWS Daily Summary

Daily Weather History Graph

Daily Weather History Graph

Search for Another Location

Airport:

Trip Planner

Search our weather history database for the weather conditions in past years. The results will help you decide how hot, cold, wet, or windy it might be!

Date:

Astronomy

Nov. 10, 2012 Rise Set
Actual Time 6:47 AM EST 5:24 PM EST
Civil Twilight 6:22 AM EST 5:50 PM EST
Nautical Twilight 5:52 AM EST 6:19 PM EST
Astronomical Twilight 5:23 AM EST 6:48 PM EST
Moon 3:02 AM EST (11/10) 3:01 PM EST (11/10)
Length of Visible Light 11h 28m
Length of Day
10h 36m
Waning Crescent, 14% of the Moon is Illuminated
Nov 10
Waning Crescent
Nov 13
New
Nov 20
First Quarter
Nov 28
Full
Dec 6
Last Quarter

Hourly Weather History & Observations

Time (EST) Temp. Dew Point Humidity Pressure Visibility Wind Dir Wind Speed Gust Speed Precip Events Conditions
12:15 AM 46.4 °F 44.6 °F 93% 30.27 in 7.0 mi Calm Calm - N/A   Clear
12:35 AM 46.4 °F 44.6 °F 93% 30.27 in 5.0 mi Calm Calm - N/A   Clear
12:55 AM 44.6 °F 44.6 °F 100% 30.27 in 7.0 mi Calm Calm - N/A   Clear
1:15 AM 44.6 °F 44.6 °F 100% 30.28 in 10.0 mi Calm Calm - N/A   Clear
1:35 AM 44.6 °F 44.6 °F 100% 30.28 in 4.0 mi Calm Calm - N/A   Clear
1:55 AM 44.6 °F 44.6 °F 100% 30.28 in 5.0 mi Calm Calm - N/A   Clear
2:15 AM 44.6 °F 44.6 °F 100% 30.29 in 7.0 mi Calm Calm - N/A   Clear
2:35 AM 44.6 °F 44.6 °F 100% 30.29 in 5.0 mi Calm Calm - N/A   Clear
2:55 AM 44.6 °F 44.6 °F 100% 30.29 in 5.0 mi Calm Calm - N/A   Clear
3:15 AM 46.4 °F 44.6 °F 93% 30.29 in 4.0 mi Calm Calm - N/A   Clear
3:35 AM 44.6 °F 42.8 °F 93% 30.29 in 5.0 mi Calm Calm - N/A   Clear
3:55 AM 44.6 °F 42.8 °F 93% 30.30 in 7.0 mi Calm Calm - N/A   Clear
4:15 AM 44.6 °F 42.8 °F 93% 30.30 in 5.0 mi Calm Calm - N/A   Clear
4:35 AM 44.6 °F 42.8 °F 93% 30.30 in 4.0 mi Calm Calm - N/A   Clear
4:55 AM 44.6 °F 42.8 °F 93% 30.31 in 5.0 mi Calm Calm - N/A   Clear
5:15 AM 44.6 °F 42.8 °F 93% 30.31 in 3.0 mi Calm Calm - N/A   Clear
5:35 AM 44.6 °F 44.6 °F 100% 30.32 in 4.0 mi Calm Calm - N/A   Clear
5:55 AM 44.6 °F 44.6 °F 100% 30.33 in 2.5 mi Calm Calm - N/A   Clear
6:15 AM 44.6 °F 42.8 °F 93% 30.34 in 4.0 mi Calm Calm - N/A   Clear
6:35 AM 44.6 °F 42.8 °F 93% 30.34 in 1.2 mi Calm Calm - N/A   Mist
6:55 AM 44.6 °F 44.6 °F 100% 30.34 in 1.5 mi Calm Calm - N/A   Mist
7:35 AM 46.4 °F 44.6 °F 93% 30.36 in 2.5 mi Calm Calm - N/A   Clear
7:55 AM 48.2 °F 46.4 °F 93% 30.37 in 4.0 mi Calm Calm - N/A   Clear
8:15 AM 50.0 °F 50.0 °F 100% 30.37 in 7.0 mi Calm Calm - N/A   Clear
8:35 AM 51.8 °F 51.8 °F 100% 30.37 in 7.0 mi Calm Calm - N/A   Clear
8:55 AM 53.6 °F 50.0 °F 88% 30.37 in 7.0 mi Calm Calm - N/A   Clear
9:15 AM 57.2 °F 48.2 °F 72% 30.38 in 7.0 mi Calm Calm - N/A   Clear
9:55 AM 60.8 °F 46.4 °F 59% 30.38 in 7.0 mi Calm Calm - N/A   Clear
10:15 AM 62.6 °F 44.6 °F 52% 30.38 in 5.0 mi West 3.5 mph - N/A   Haze
10:35 AM 64.4 °F 42.8 °F 45% 30.38 in 7.0 mi Calm Calm - N/A   Clear
10:55 AM 66.2 °F 41.0 °F 40% 30.38 in 7.0 mi Calm Calm - N/A   Clear
11:15 AM 68.0 °F 41.0 °F 37% 30.37 in 7.0 mi Calm Calm - N/A   Clear
11:35 AM 68.0 °F 39.2 °F 35% 30.36 in 5.0 mi Calm Calm - N/A   Haze
11:55 AM 69.8 °F 37.4 °F 31% 30.35 in 7.0 mi Calm Calm - N/A   Clear
12:15 PM 69.8 °F 37.4 °F 31% 30.35 in 7.0 mi Calm Calm - N/A   Clear
12:35 PM 69.8 °F 37.4 °F 31% 30.34 in 7.0 mi Calm Calm - N/A   Clear
12:55 PM 71.6 °F 37.4 °F 29% 30.33 in 7.0 mi SSE 5.8 mph - N/A   Clear
1:15 PM 71.6 °F 39.2 °F 31% 30.33 in 7.0 mi Calm Calm - N/A   Clear
1:35 PM 71.6 °F 37.4 °F 29% 30.32 in 7.0 mi South 4.6 mph - N/A   Clear
1:55 PM 69.8 °F 41.0 °F 35% 30.32 in 7.0 mi South 4.6 mph - N/A   Clear
2:15 PM 69.8 °F 37.4 °F 31% 30.31 in 7.0 mi South 3.5 mph - N/A   Clear
2:35 PM 69.8 °F 35.6 °F 28% 30.31 in 7.0 mi SSE 6.9 mph - N/A   Clear
2:55 PM 69.8 °F 33.8 °F 27% 30.32 in 5.0 mi ESE 3.5 mph - N/A   Haze
3:15 PM 69.8 °F 32.0 °F 25% 30.32 in 7.0 mi SSE 5.8 mph - N/A   Clear
3:35 PM 69.8 °F 32.0 °F 25% 30.32 in 10.0 mi SE 5.8 mph - N/A   Clear
3:55 PM 68.0 °F 32.0 °F 26% 30.32 in 10.0 mi SE 5.8 mph - N/A   Clear
4:15 PM 68.0 °F 32.0 °F 26% 30.33 in 7.0 mi ESE 4.6 mph - N/A   Clear
4:35 PM 64.4 °F 33.8 °F 32% 30.33 in 7.0 mi SE 3.5 mph - N/A   Clear
4:55 PM 62.6 °F 37.4 °F 39% 30.33 in 7.0 mi Calm Calm - N/A   Clear
5:15 PM 60.8 °F 37.4 °F 42% 30.34 in 7.0 mi Calm Calm - N/A   Clear
5:35 PM 59.0 °F 37.4 °F 45% 30.34 in 10.0 mi Calm Calm - N/A   Clear
5:55 PM 55.4 °F 39.2 °F 54% 30.34 in 7.0 mi ESE 3.5 mph - N/A   Clear
6:15 PM 55.4 °F 41.0 °F 58% 30.35 in 7.0 mi Calm Calm - N/A   Clear
6:35 PM 55.4 °F 41.0 °F 58% 30.35 in 7.0 mi Calm Calm - N/A   Clear
6:55 PM 53.6 °F 41.0 °F 62% 30.36 in 10.0 mi Calm Calm - N/A   Clear
7:15 PM 53.6 °F 41.0 °F 62% 30.36 in 7.0 mi Calm Calm - N/A   Clear
7:35 PM 53.6 °F 42.8 °F 67% 30.36 in 10.0 mi Calm Calm - N/A   Clear
7:55 PM 51.8 °F 42.8 °F 71% 30.37 in 10.0 mi Calm Calm - N/A   Clear
8:15 PM 51.8 °F 42.8 °F 71% 30.37 in 10.0 mi Calm Calm - N/A   Clear
8:35 PM 51.8 °F 42.8 °F 71% 30.37 in 7.0 mi Calm Calm - N/A   Clear
8:55 PM 51.8 °F 44.6 °F 76% 30.37 in 7.0 mi Calm Calm - N/A   Clear
9:15 PM 50.0 °F 44.6 °F 82% 30.37 in 7.0 mi Calm Calm - N/A   Clear
9:35 PM 51.8 °F 44.6 °F 76% 30.37 in 7.0 mi Calm Calm - N/A   Clear
9:55 PM 51.8 °F 46.4 °F 82% 30.38 in 7.0 mi Calm Calm - N/A   Clear
10:15 PM 51.8 °F 44.6 °F 76% 30.38 in 10.0 mi Calm Calm - N/A   Clear
10:35 PM 51.8 °F 46.4 °F 82% 30.37 in 10.0 mi NNE 3.5 mph - N/A   Clear
10:55 PM 51.8 °F 48.2 °F 88% 30.37 in 7.0 mi NE 3.5 mph - N/A   Clear
11:15 PM 51.8 °F 46.4 °F 82% 30.37 in 7.0 mi Calm Calm - N/A   Clear
11:35 PM 51.8 °F 50.0 °F 94% 30.37 in 7.0 mi NE 3.5 mph - N/A   Clear
11:55 PM 51.8 °F 50.0 °F 94% 30.37 in 7.0 mi NE 3.5 mph - N/A   Clear